owner,sensor,date,latitude,longitude,air_temperature,qcFlag 
LUMCON,ioos:station:LUMCON:103:1,2004-02-01T00:00:00Z,30.1889,-90.1683,11.9,11111222 
LUMCON,ioos:station:LUMCON:103:1,2004-02-01T01:00:00Z,30.1889,-90.1683,11.6,11111222 
LUMCON,ioos:station:LUMCON:103:1,2004-02-01T02:00:00Z,30.1889,-90.1683,11.4,11111222 
LUMCON,ioos:station:LUMCON:103:1,2004-02-01T03:00:00Z,30.1889,-90.1683,11.3,11111222 
LUMCON,ioos:station:LUMCON:103:1,2004-02-01T04:00:00Z,30.1889,-90.1683,11.1,11111222 
LUMCON,ioos:station:LUMCON:103:1,2004-02-01T05:00:00Z,30.1889,-90.1683,10.8,11111222 
LUMCON,ioos:station:LUMCON:103:1,2004-02-01T06:00:00Z,30.1889,-90.1683,10.8,11111222 
LUMCON,ioos:station:LUMCON:103:1,2004-02-01T07:00:00Z,30.1889,-90.1683,10.8,11111222 
LUMCON,ioos:station:LUMCON:103:1,2004-02-01T08:00:00Z,30.1889,-90.1683,10.4,11111222 
LUMCON,ioos:station:LUMCON:103:1,2004-02-01T09:00:00Z,30.1889,-90.1683,9.7,11111222 
LUMCON,ioos:station:LUMCON:103:1,2004-02-01T10:00:00Z,30.1889,-90.1683,9.8,11111222 
LUMCON,ioos:station:LUMCON:103:1,2004-02-01T11:00:00Z,30.1889,-90.1683,10.2,11111222 
LUMCON,ioos:station:LUMCON:103:1,2004-02-01T12:00:00Z,30.1889,-90.1683,10.4,11111222 
LUMCON,ioos:station:LUMCON:103:1,2004-02-01T13:00:00Z,30.1889,-90.1683,10.4,11111222 
LUMCON,ioos:station:LUMCON:103:1,2004-02-01T14:00:00Z,30.1889,-90.1683,10.7,11111222 
LUMCON,ioos:station:LUMCON:103:1,2004-02-01T15:00:00Z,30.1889,-90.1683,10.9,11111222 
LUMCON,ioos:station:LUMCON:103:1,2004-02-01T16:00:00Z,30.1889,-90.1683,11.5,11111222 
LUMCON,ioos:station:LUMCON:103:1,2004-02-01T17:00:00Z,30.1889,-90.1683,12.1,11111222 
LUMCON,ioos:station:LUMCON:103:1,2004-02-01T18:00:00Z,30.1889,-90.1683,12.4,11111222 
LUMCON,ioos:station:LUMCON:103:1,2004-02-01T19:00:00Z,30.1889,-90.1683,12.3,11111222 
LUMCON,ioos:station:LUMCON:103:1,2004-02-01T20:00:00Z,30.1889,-90.1683,12.6,11111222 
LUMCON,ioos:station:LUMCON:103:1,2004-02-01T21:00:00Z,30.1889,-90.1683,12.3,11111222 
LUMCON,ioos:station:LUMCON:103:1,2004-02-01T22:00:00Z,30.1889,-90.1683,12.4,11111222 
LUMCON,ioos:station:LUMCON:103:1,2004-02-01T23:00:00Z,30.1889,-90.1683,12.6,11111222 
LUMCON,ioos:station:LUMCON:103:1,2004-02-02T00:00:00Z,30.1889,-90.1683,12.1,11111222 
LUMCON,ioos:station:LUMCON:103:1,2004-02-02T01:00:00Z,30.1889,-90.1683,11.7,11111222 
LUMCON,ioos:station:LUMCON:103:1,2004-02-02T02:00:00Z,30.1889,-90.1683,11.3,11111222 
LUMCON,ioos:station:LUMCON:103:1,2004-02-02T03:00:00Z,30.1889,-90.1683,10.9,11111222 
LUMCON,ioos:station:LUMCON:103:1,2004-02-02T04:00:00Z,30.1889,-90.1683,10.8,11111222 
LUMCON,ioos:station:LUMCON:103:1,2004-02-02T05:00:00Z,30.1889,-90.1683,10.7,11111222 
LUMCON,ioos:station:LUMCON:103:1,2004-02-02T06:00:00Z,30.1889,-90.1683,10.7,11111222 
LUMCON,ioos:station:LUMCON:103:1,2004-02-02T07:00:00Z,30.1889,-90.1683,10.8,11111222 
LUMCON,ioos:station:LUMCON:103:1,2004-02-02T08:00:00Z,30.1889,-90.1683,10.5,11111222 
LUMCON,ioos:station:LUMCON:103:1,2004-02-02T09:00:00Z,30.1889,-90.1683,10.7,11111222 
LUMCON,ioos:station:LUMCON:103:1,2004-02-02T10:00:00Z,30.1889,-90.1683,10.9,11111222 
LUMCON,ioos:station:LUMCON:103:1,2004-02-02T11:00:00Z,30.1889,-90.1683,11.0,11111222 
LUMCON,ioos:station:LUMCON:103:1,2004-02-02T12:00:00Z,30.1889,-90.1683,11.1,11111222 
LUMCON,ioos:station:LUMCON:103:1,2004-02-02T13:00:00Z,30.1889,-90.1683,11.3,11111222 
LUMCON,ioos:station:LUMCON:103:1,2004-02-02T14:00:00Z,30.1889,-90.1683,11.5,11111222 
LUMCON,ioos:station:LUMCON:103:1,2004-02-02T15:00:00Z,30.1889,-90.1683,11.7,11111222 
LUMCON,ioos:station:LUMCON:103:1,2004-02-02T16:00:00Z,30.1889,-90.1683,11.7,11111222 
LUMCON,ioos:station:LUMCON:103:1,2004-02-02T17:00:00Z,30.1889,-90.1683,11.8,11111222 
LUMCON,ioos:station:LUMCON:103:1,2004-02-02T18:00:00Z,30.1889,-90.1683,12.0,11111222 
LUMCON,ioos:station:LUMCON:103:1,2004-02-02T19:00:00Z,30.1889,-90.1683,11.4,11111222 
LUMCON,ioos:station:LUMCON:103:1,2004-02-02T20:00:00Z,30.1889,-90.1683,13.2,11111222 
LUMCON,ioos:station:LUMCON:103:1,2004-02-02T21:00:00Z,30.1889,-90.1683,13.3,11111222 
LUMCON,ioos:station:LUMCON:103:1,2004-02-02T22:00:00Z,30.1889,-90.1683,13.2,11111222 
LUMCON,ioos:station:LUMCON:103:1,2004-02-02T23:00:00Z,30.1889,-90.1683,13.5,11111222 
LUMCON,ioos:station:LUMCON:103:1,2004-02-03T00:00:00Z,30.1889,-90.1683,13.3,11111222 
LUMCON,ioos:station:LUMCON:103:1,2004-02-03T01:00:00Z,30.1889,-90.1683,12.2,11111222 
LUMCON,ioos:station:LUMCON:103:1,2004-02-03T02:00:00Z,30.1889,-90.1683,12.8,11111222 
LUMCON,ioos:station:LUMCON:103:1,2004-02-03T03:00:00Z,30.1889,-90.1683,12.5,11111222 
LUMCON,ioos:station:LUMCON:103:1,2004-02-03T04:00:00Z,30.1889,-90.1683,12.5,11111222 
LUMCON,ioos:station:LUMCON:103:1,2004-02-03T05:00:00Z,30.1889,-90.1683,9.6,11111222 
LUMCON,ioos:station:LUMCON:103:1,2004-02-03T06:00:00Z,30.1889,-90.1683,8.1,11111222 
LUMCON,ioos:station:LUMCON:103:1,2004-02-03T07:00:00Z,30.1889,-90.1683,7.3,11111222 
LUMCON,ioos:station:LUMCON:103:1,2004-02-03T08:00:00Z,30.1889,-90.1683,6.6,11111222 
LUMCON,ioos:station:LUMCON:103:1,2004-02-03T09:00:00Z,30.1889,-90.1683,5.9,11111222 
LUMCON,ioos:station:LUMCON:103:1,2004-02-03T10:00:00Z,30.1889,-90.1683,5.1,11111222 
LUMCON,ioos:station:LUMCON:103:1,2004-02-03T11:00:00Z,30.1889,-90.1683,4.4,11111222 
LUMCON,ioos:station:LUMCON:103:1,2004-02-03T12:00:00Z,30.1889,-90.1683,3.8,11111222 
LUMCON,ioos:station:LUMCON:103:1,2004-02-03T13:00:00Z,30.1889,-90.1683,3.3,11111222 
LUMCON,ioos:station:LUMCON:103:1,2004-02-03T14:00:00Z,30.1889,-90.1683,3.8,11111222 
LUMCON,ioos:station:LUMCON:103:1,2004-02-03T15:00:00Z,30.1889,-90.1683,4.7,11111222 
LUMCON,ioos:station:LUMCON:103:1,2004-02-03T16:00:00Z,30.1889,-90.1683,6.2,11111222 
LUMCON,ioos:station:LUMCON:103:1,2004-02-03T17:00:00Z,30.1889,-90.1683,8.4,11111222 
LUMCON,ioos:station:LUMCON:103:1,2004-02-03T18:00:00Z,30.1889,-90.1683,10.6,11111222 
LUMCON,ioos:station:LUMCON:103:1,2004-02-03T19:00:00Z,30.1889,-90.1683,12.0,11111222 
LUMCON,ioos:station:LUMCON:103:1,2004-02-03T20:00:00Z,30.1889,-90.1683,12.9,11111222 
LUMCON,ioos:station:LUMCON:103:1,2004-02-03T21:00:00Z,30.1889,-90.1683,13.7,11111222 
LUMCON,ioos:station:LUMCON:103:1,2004-02-03T22:00:00Z,30.1889,-90.1683,13.8,11111222 
LUMCON,ioos:station:LUMCON:103:1,2004-02-03T23:00:00Z,30.1889,-90.1683,13.5,11111222 
LUMCON,ioos:station:LUMCON:103:1,2004-02-04T00:00:00Z,30.1889,-90.1683,12.4,11111222 
LUMCON,ioos:station:LUMCON:103:1,2004-02-04T01:00:00Z,30.1889,-90.1683,11.4,11111222 
LUMCON,ioos:station:LUMCON:103:1,2004-02-04T02:00:00Z,30.1889,-90.1683,10.7,11111222 
LUMCON,ioos:station:LUMCON:103:1,2004-02-04T03:00:00Z,30.1889,-90.1683,10.0,11111222 
LUMCON,ioos:station:LUMCON:103:1,2004-02-04T04:00:00Z,30.1889,-90.1683,9.9,11111222 
LUMCON,ioos:station:LUMCON:103:1,2004-02-04T05:00:00Z,30.1889,-90.1683,9.4,11111222 
LUMCON,ioos:station:LUMCON:103:1,2004-02-04T06:00:00Z,30.1889,-90.1683,8.8,11111222 
LUMCON,ioos:station:LUMCON:103:1,2004-02-04T07:00:00Z,30.1889,-90.1683,8.3,11111222 
LUMCON,ioos:station:LUMCON:103:1,2004-02-04T08:00:00Z,30.1889,-90.1683,7.9,11111222 
LUMCON,ioos:station:LUMCON:103:1,2004-02-04T09:00:00Z,30.1889,-90.1683,7.4,11111222 
LUMCON,ioos:station:LUMCON:103:1,2004-02-04T10:00:00Z,30.1889,-90.1683,7.1,11111222 
LUMCON,ioos:station:LUMCON:103:1,2004-02-04T11:00:00Z,30.1889,-90.1683,6.7,11111222 
LUMCON,ioos:station:LUMCON:103:1,2004-02-04T12:00:00Z,30.1889,-90.1683,6.1,11111222 
LUMCON,ioos:station:LUMCON:103:1,2004-02-04T13:00:00Z,30.1889,-90.1683,6.2,11111222 
LUMCON,ioos:station:LUMCON:103:1,2004-02-04T14:00:00Z,30.1889,-90.1683,6.1,11111222 
LUMCON,ioos:station:LUMCON:103:1,2004-02-04T15:00:00Z,30.1889,-90.1683,5.8,11111222 
LUMCON,ioos:station:LUMCON:103:1,2004-02-04T16:00:00Z,30.1889,-90.1683,6.6,11111222 
LUMCON,ioos:station:LUMCON:103:1,2004-02-04T17:00:00Z,30.1889,-90.1683,8.2,11111222 
LUMCON,ioos:station:LUMCON:103:1,2004-02-04T18:00:00Z,30.1889,-90.1683,9.6,11111222 
LUMCON,ioos:station:LUMCON:103:1,2004-02-04T19:00:00Z,30.1889,-90.1683,10.3,11111222 
LUMCON,ioos:station:LUMCON:103:1,2004-02-04T20:00:00Z,30.1889,-90.1683,10.9,11111222 
LUMCON,ioos:station:LUMCON:103:1,2004-02-04T21:00:00Z,30.1889,-90.1683,11.4,11111222 
LUMCON,ioos:station:LUMCON:103:1,2004-02-04T22:00:00Z,30.1889,-90.1683,11.9,11111222 
LUMCON,ioos:station:LUMCON:103:1,2004-02-04T23:00:00Z,30.1889,-90.1683,12.2,11111222 
LUMCON,ioos:station:LUMCON:103:1,2004-02-05T00:00:00Z,30.1889,-90.1683,12.1,11111222 
LUMCON,ioos:station:LUMCON:103:1,2004-02-05T01:00:00Z,30.1889,-90.1683,12.3,11111222 
LUMCON,ioos:station:LUMCON:103:1,2004-02-05T02:00:00Z,30.1889,-90.1683,11.4,11111222 
LUMCON,ioos:station:LUMCON:103:1,2004-02-05T03:00:00Z,30.1889,-90.1683,12.6,11111222 
LUMCON,ioos:station:LUMCON:103:1,2004-02-05T04:00:00Z,30.1889,-90.1683,12.8,11111222 
LUMCON,ioos:station:LUMCON:103:1,2004-02-05T05:00:00Z,30.1889,-90.1683,13.3,11111222 
LUMCON,ioos:station:LUMCON:103:1,2004-02-05T06:00:00Z,30.1889,-90.1683,14.4,11111222 
LUMCON,ioos:station:LUMCON:103:1,2004-02-05T07:00:00Z,30.1889,-90.1683,14.1,11111222 
LUMCON,ioos:station:LUMCON:103:1,2004-02-05T08:00:00Z,30.1889,-90.1683,13.1,11111222 
LUMCON,ioos:station:LUMCON:103:1,2004-02-05T09:00:00Z,30.1889,-90.1683,13.1,11111222 
LUMCON,ioos:station:LUMCON:103:1,2004-02-05T14:00:00Z,30.1889,-90.1683,14.6,11111222 
LUMCON,ioos:station:LUMCON:103:1,2004-02-09T20:00:00Z,30.1889,-90.1683,12.2,11111222 
LUMCON,ioos:station:LUMCON:103:1,2004-02-09T21:00:00Z,30.1889,-90.1683,12.4,11111222 
LUMCON,ioos:station:LUMCON:103:1,2004-02-09T22:00:00Z,30.1889,-90.1683,12.7,11111222 
LUMCON,ioos:station:LUMCON:103:1,2004-02-09T23:00:00Z,30.1889,-90.1683,12.8,11111222 
LUMCON,ioos:station:LUMCON:103:1,2004-02-10T00:00:00Z,30.1889,-90.1683,12.6,11111222 
LUMCON,ioos:station:LUMCON:103:1,2004-02-10T01:00:00Z,30.1889,-90.1683,12.3,11111222 
LUMCON,ioos:station:LUMCON:103:1,2004-02-10T02:00:00Z,30.1889,-90.1683,12.2,11111222 
LUMCON,ioos:station:LUMCON:103:1,2004-02-10T03:00:00Z,30.1889,-90.1683,12.0,11111222 
LUMCON,ioos:station:LUMCON:103:1,2004-02-10T04:00:00Z,30.1889,-90.1683,11.9,11111222 
LUMCON,ioos:station:LUMCON:103:1,2004-02-10T05:00:00Z,30.1889,-90.1683,12.0,11111222 
LUMCON,ioos:station:LUMCON:103:1,2004-02-10T06:00:00Z,30.1889,-90.1683,11.8,11111222 
LUMCON,ioos:station:LUMCON:103:1,2004-02-10T07:00:00Z,30.1889,-90.1683,11.4,11111222 
LUMCON,ioos:station:LUMCON:103:1,2004-02-10T09:00:00Z,30.1889,-90.1683,11.6,11111222 
LUMCON,ioos:station:LUMCON:103:1,2004-02-10T10:00:00Z,30.1889,-90.1683,11.9,11111222 
LUMCON,ioos:station:LUMCON:103:1,2004-02-10T11:00:00Z,30.1889,-90.1683,12.4,11111222 
LUMCON,ioos:station:LUMCON:103:1,2004-02-10T12:00:00Z,30.1889,-90.1683,12.2,11111222 
LUMCON,ioos:station:LUMCON:103:1,2004-02-10T13:00:00Z,30.1889,-90.1683,12.2,11111222 
LUMCON,ioos:station:LUMCON:103:1,2004-02-10T14:00:00Z,30.1889,-90.1683,13.0,11111222 
LUMCON,ioos:station:LUMCON:103:1,2004-02-10T15:00:00Z,30.1889,-90.1683,12.7,11111222 
LUMCON,ioos:station:LUMCON:103:1,2004-02-10T16:00:00Z,30.1889,-90.1683,12.5,11111222 
LUMCON,ioos:station:LUMCON:103:1,2004-02-10T17:00:00Z,30.1889,-90.1683,12.2,11111222 
LUMCON,ioos:station:LUMCON:103:1,2004-02-10T18:00:00Z,30.1889,-90.1683,12.0,11111222 
LUMCON,ioos:station:LUMCON:103:1,2004-02-10T19:00:00Z,30.1889,-90.1683,12.3,11111222 
LUMCON,ioos:station:LUMCON:103:1,2004-02-10T20:00:00Z,30.1889,-90.1683,12.5,11111222 
LUMCON,ioos:station:LUMCON:103:1,2004-02-10T23:00:00Z,30.1889,-90.1683,12.4,11111222 
LUMCON,ioos:station:LUMCON:103:1,2004-02-11T00:00:00Z,30.1889,-90.1683,13.2,11111222 
LUMCON,ioos:station:LUMCON:103:1,2004-02-11T01:00:00Z,30.1889,-90.1683,12.6,11111222 
LUMCON,ioos:station:LUMCON:103:1,2004-02-11T02:00:00Z,30.1889,-90.1683,12.1,11111222 
LUMCON,ioos:station:LUMCON:103:1,2004-02-11T03:00:00Z,30.1889,-90.1683,12.3,11111222 
LUMCON,ioos:station:LUMCON:103:1,2004-02-11T04:00:00Z,30.1889,-90.1683,12.1,11111222 
LUMCON,ioos:station:LUMCON:103:1,2004-02-11T05:00:00Z,30.1889,-90.1683,12.2,11111222 
LUMCON,ioos:station:LUMCON:103:1,2004-02-11T06:00:00Z,30.1889,-90.1683,12.1,11111222 
LUMCON,ioos:station:LUMCON:103:1,2004-02-11T07:00:00Z,30.1889,-90.1683,12.0,11111222 
LUMCON,ioos:station:LUMCON:103:1,2004-02-11T08:00:00Z,30.1889,-90.1683,11.9,11111222 
LUMCON,ioos:station:LUMCON:103:1,2004-02-11T09:00:00Z,30.1889,-90.1683,12.0,11111222 
LUMCON,ioos:station:LUMCON:103:1,2004-02-11T10:00:00Z,30.1889,-90.1683,12.0,11111222 
LUMCON,ioos:station:LUMCON:103:1,2004-02-11T11:00:00Z,30.1889,-90.1683,11.8,11111222 
LUMCON,ioos:station:LUMCON:103:1,2004-02-11T12:00:00Z,30.1889,-90.1683,11.7,11111222 
LUMCON,ioos:station:LUMCON:103:1,2004-02-11T13:00:00Z,30.1889,-90.1683,11.6,11111222 
LUMCON,ioos:station:LUMCON:103:1,2004-02-11T14:00:00Z,30.1889,-90.1683,11.6,11111222 
LUMCON,ioos:station:LUMCON:103:1,2004-02-11T15:00:00Z,30.1889,-90.1683,11.6,11111222 
LUMCON,ioos:station:LUMCON:103:1,2004-02-11T16:00:00Z,30.1889,-90.1683,11.5,11111222 
LUMCON,ioos:station:LUMCON:103:1,2004-02-11T17:00:00Z,30.1889,-90.1683,12.1,11111222 
LUMCON,ioos:station:LUMCON:103:1,2004-02-11T18:00:00Z,30.1889,-90.1683,12.0,11111222 
LUMCON,ioos:station:LUMCON:103:1,2004-02-11T19:00:00Z,30.1889,-90.1683,12.3,11111222 
LUMCON,ioos:station:LUMCON:103:1,2004-02-11T20:00:00Z,30.1889,-90.1683,12.3,11111222 
LUMCON,ioos:station:LUMCON:103:1,2004-02-11T21:00:00Z,30.1889,-90.1683,12.4,11111222 
LUMCON,ioos:station:LUMCON:103:1,2004-02-11T22:00:00Z,30.1889,-90.1683,13.0,11111222 
LUMCON,ioos:station:LUMCON:103:1,2004-02-11T23:00:00Z,30.1889,-90.1683,12.9,11111222 
LUMCON,ioos:station:LUMCON:103:1,2004-02-12T00:00:00Z,30.1889,-90.1683,13.0,11111222 
LUMCON,ioos:station:LUMCON:103:1,2004-02-12T01:00:00Z,30.1889,-90.1683,13.1,11111222 
LUMCON,ioos:station:LUMCON:103:1,2004-02-12T02:00:00Z,30.1889,-90.1683,13.1,11111222 
LUMCON,ioos:station:LUMCON:103:1,2004-02-12T03:00:00Z,30.1889,-90.1683,13.3,11111222 
LUMCON,ioos:station:LUMCON:103:1,2004-02-12T05:00:00Z,30.1889,-90.1683,14.9,11111222 
LUMCON,ioos:station:LUMCON:103:1,2004-02-12T06:00:00Z,30.1889,-90.1683,14.4,11111222 
LUMCON,ioos:station:LUMCON:103:1,2004-02-12T07:00:00Z,30.1889,-90.1683,11.9,11111222 
LUMCON,ioos:station:LUMCON:103:1,2004-02-12T08:00:00Z,30.1889,-90.1683,10.7,11111222 
LUMCON,ioos:station:LUMCON:103:1,2004-02-12T09:00:00Z,30.1889,-90.1683,10.6,11111222 
LUMCON,ioos:station:LUMCON:103:1,2004-02-12T10:00:00Z,30.1889,-90.1683,10.4,11111222 
LUMCON,ioos:station:LUMCON:103:1,2004-02-12T11:00:00Z,30.1889,-90.1683,10.4,11111222 
LUMCON,ioos:station:LUMCON:103:1,2004-02-12T12:00:00Z,30.1889,-90.1683,10.6,11111222 
LUMCON,ioos:station:LUMCON:103:1,2004-02-12T13:00:00Z,30.1889,-90.1683,10.3,11111222 
LUMCON,ioos:station:LUMCON:103:1,2004-02-12T14:00:00Z,30.1889,-90.1683,9.8,11111222 
LUMCON,ioos:station:LUMCON:103:1,2004-02-12T15:00:00Z,30.1889,-90.1683,9.5,11111222 
LUMCON,ioos:station:LUMCON:103:1,2004-02-12T16:00:00Z,30.1889,-90.1683,9.1,11111222 
LUMCON,ioos:station:LUMCON:103:1,2004-02-12T17:00:00Z,30.1889,-90.1683,8.6,11111222 
LUMCON,ioos:station:LUMCON:103:1,2004-02-12T18:00:00Z,30.1889,-90.1683,8.6,11111222 
LUMCON,ioos:station:LUMCON:103:1,2004-02-12T19:00:00Z,30.1889,-90.1683,8.8,11111222 
LUMCON,ioos:station:LUMCON:103:1,2004-02-12T20:00:00Z,30.1889,-90.1683,9.0,11111222 
LUMCON,ioos:station:LUMCON:103:1,2004-02-12T21:00:00Z,30.1889,-90.1683,8.8,11111222 
LUMCON,ioos:station:LUMCON:103:1,2004-02-12T22:00:00Z,30.1889,-90.1683,8.8,11111222 
LUMCON,ioos:station:LUMCON:103:1,2004-02-12T23:00:00Z,30.1889,-90.1683,8.3,11111222 
LUMCON,ioos:station:LUMCON:103:1,2004-02-13T00:00:00Z,30.1889,-90.1683,8.3,11111222 
LUMCON,ioos:station:LUMCON:103:1,2004-02-13T01:00:00Z,30.1889,-90.1683,8.3,11111222 
LUMCON,ioos:station:LUMCON:103:1,2004-02-13T02:00:00Z,30.1889,-90.1683,8.5,11111222 
LUMCON,ioos:station:LUMCON:103:1,2004-02-13T03:00:00Z,30.1889,-90.1683,8.5,11111222 
LUMCON,ioos:station:LUMCON:103:1,2004-02-13T04:00:00Z,30.1889,-90.1683,8.3,11111222 
LUMCON,ioos:station:LUMCON:103:1,2004-02-13T05:00:00Z,30.1889,-90.1683,8.3,11111222 
LUMCON,ioos:station:LUMCON:103:1,2004-02-13T06:00:00Z,30.1889,-90.1683,8.3,11111222 
LUMCON,ioos:station:LUMCON:103:1,2004-02-13T07:00:00Z,30.1889,-90.1683,8.3,11111222 
LUMCON,ioos:station:LUMCON:103:1,2004-02-13T08:00:00Z,30.1889,-90.1683,8.3,11111222 
LUMCON,ioos:station:LUMCON:103:1,2004-02-13T09:00:00Z,30.1889,-90.1683,8.2,11111222 
LUMCON,ioos:station:LUMCON:103:1,2004-02-13T10:00:00Z,30.1889,-90.1683,8.2,11111222 
LUMCON,ioos:station:LUMCON:103:1,2004-02-13T12:00:00Z,30.1889,-90.1683,7.4,11111222 
LUMCON,ioos:station:LUMCON:103:1,2004-02-13T13:00:00Z,30.1889,-90.1683,7.0,11111222 
LUMCON,ioos:station:LUMCON:103:1,2004-02-13T14:00:00Z,30.1889,-90.1683,7.1,11111222 
LUMCON,ioos:station:LUMCON:103:1,2004-02-13T15:00:00Z,30.1889,-90.1683,7.4,11111222 
LUMCON,ioos:station:LUMCON:103:1,2004-02-13T16:00:00Z,30.1889,-90.1683,8.3,11111222 
LUMCON,ioos:station:LUMCON:103:1,2004-02-13T17:00:00Z,30.1889,-90.1683,9.1,11111222 
LUMCON,ioos:station:LUMCON:103:1,2004-02-13T18:00:00Z,30.1889,-90.1683,9.7,11111222 
LUMCON,ioos:station:LUMCON:103:1,2004-02-13T19:00:00Z,30.1889,-90.1683,10.3,11111222 
LUMCON,ioos:station:LUMCON:103:1,2004-02-13T20:00:00Z,30.1889,-90.1683,10.5,11111222 
LUMCON,ioos:station:LUMCON:103:1,2004-02-13T21:00:00Z,30.1889,-90.1683,10.4,11111222 
LUMCON,ioos:station:LUMCON:103:1,2004-02-13T22:00:00Z,30.1889,-90.1683,10.2,11111222 
LUMCON,ioos:station:LUMCON:103:1,2004-02-13T23:00:00Z,30.1889,-90.1683,10.0,11111222 
LUMCON,ioos:station:LUMCON:103:1,2004-02-14T00:00:00Z,30.1889,-90.1683,9.0,11111222 
LUMCON,ioos:station:LUMCON:103:1,2004-02-14T01:00:00Z,30.1889,-90.1683,8.0,11111222 
LUMCON,ioos:station:LUMCON:103:1,2004-02-14T02:00:00Z,30.1889,-90.1683,7.8,11111222 
LUMCON,ioos:station:LUMCON:103:1,2004-02-14T03:00:00Z,30.1889,-90.1683,7.8,11111222 
LUMCON,ioos:station:LUMCON:103:1,2004-02-14T05:00:00Z,30.1889,-90.1683,7.8,11111222 
LUMCON,ioos:station:LUMCON:103:1,2004-02-14T06:00:00Z,30.1889,-90.1683,8.0,11111222 
LUMCON,ioos:station:LUMCON:103:1,2004-02-14T07:00:00Z,30.1889,-90.1683,8.1,11111222 
LUMCON,ioos:station:LUMCON:103:1,2004-02-14T08:00:00Z,30.1889,-90.1683,7.7,11111222 
LUMCON,ioos:station:LUMCON:103:1,2004-02-14T09:00:00Z,30.1889,-90.1683,7.6,11111222 
LUMCON,ioos:station:LUMCON:103:1,2004-02-14T10:00:00Z,30.1889,-90.1683,7.7,11111222 
LUMCON,ioos:station:LUMCON:103:1,2004-02-14T11:00:00Z,30.1889,-90.1683,8.1,11111222 
LUMCON,ioos:station:LUMCON:103:1,2004-02-14T12:00:00Z,30.1889,-90.1683,7.8,11111222 
LUMCON,ioos:station:LUMCON:103:1,2004-02-14T13:00:00Z,30.1889,-90.1683,7.8,11111222 
LUMCON,ioos:station:LUMCON:103:1,2004-02-14T14:00:00Z,30.1889,-90.1683,8.0,11111222 
LUMCON,ioos:station:LUMCON:103:1,2004-02-14T15:00:00Z,30.1889,-90.1683,8.4,11111222 
LUMCON,ioos:station:LUMCON:103:1,2004-02-14T16:00:00Z,30.1889,-90.1683,9.1,11111222 
LUMCON,ioos:station:LUMCON:103:1,2004-02-14T17:00:00Z,30.1889,-90.1683,9.5,11111222 
LUMCON,ioos:station:LUMCON:103:1,2004-02-14T18:00:00Z,30.1889,-90.1683,9.9,11111222 
LUMCON,ioos:station:LUMCON:103:1,2004-02-14T19:00:00Z,30.1889,-90.1683,10.2,11111222 
LUMCON,ioos:station:LUMCON:103:1,2004-02-14T20:00:00Z,30.1889,-90.1683,10.3,11111222 
LUMCON,ioos:station:LUMCON:103:1,2004-02-14T21:00:00Z,30.1889,-90.1683,10.2,11111222 
LUMCON,ioos:station:LUMCON:103:1,2004-02-14T22:00:00Z,30.1889,-90.1683,9.5,11111222 
LUMCON,ioos:station:LUMCON:103:1,2004-02-14T23:00:00Z,30.1889,-90.1683,9.4,11111222 
LUMCON,ioos:station:LUMCON:103:1,2004-02-15T00:00:00Z,30.1889,-90.1683,8.9,11111222 
LUMCON,ioos:station:LUMCON:103:1,2004-02-15T01:00:00Z,30.1889,-90.1683,8.2,11111222 
LUMCON,ioos:station:LUMCON:103:1,2004-02-15T02:00:00Z,30.1889,-90.1683,7.5,11111222 
LUMCON,ioos:station:LUMCON:103:1,2004-02-15T03:00:00Z,30.1889,-90.1683,7.3,11111222 
LUMCON,ioos:station:LUMCON:103:1,2004-02-15T04:00:00Z,30.1889,-90.1683,7.1,11111222 
LUMCON,ioos:station:LUMCON:103:1,2004-02-15T05:00:00Z,30.1889,-90.1683,6.8,11111222 
LUMCON,ioos:station:LUMCON:103:1,2004-02-15T06:00:00Z,30.1889,-90.1683,5.8,11111222 
LUMCON,ioos:station:LUMCON:103:1,2004-02-15T07:00:00Z,30.1889,-90.1683,5.6,11111222 
LUMCON,ioos:station:LUMCON:103:1,2004-02-15T08:00:00Z,30.1889,-90.1683,5.4,11111222 
LUMCON,ioos:station:LUMCON:103:1,2004-02-15T09:00:00Z,30.1889,-90.1683,4.9,11111222 
LUMCON,ioos:station:LUMCON:103:1,2004-02-15T10:00:00Z,30.1889,-90.1683,4.6,11111222 
LUMCON,ioos:station:LUMCON:103:1,2004-02-15T11:00:00Z,30.1889,-90.1683,4.7,11111222 
LUMCON,ioos:station:LUMCON:103:1,2004-02-15T12:00:00Z,30.1889,-90.1683,4.4,11111222 
LUMCON,ioos:station:LUMCON:103:1,2004-02-15T13:00:00Z,30.1889,-90.1683,4.3,11111222 
LUMCON,ioos:station:LUMCON:103:1,2004-02-15T14:00:00Z,30.1889,-90.1683,4.3,11111222 
LUMCON,ioos:station:LUMCON:103:1,2004-02-15T15:00:00Z,30.1889,-90.1683,4.8,11111222 
LUMCON,ioos:station:LUMCON:103:1,2004-02-15T16:00:00Z,30.1889,-90.1683,5.9,11111222 
LUMCON,ioos:station:LUMCON:103:1,2004-02-15T17:00:00Z,30.1889,-90.1683,6.6,11111222 
LUMCON,ioos:station:LUMCON:103:1,2004-02-15T18:00:00Z,30.1889,-90.1683,7.3,11111222 
LUMCON,ioos:station:LUMCON:103:1,2004-02-15T19:00:00Z,30.1889,-90.1683,8.5,11111222 
LUMCON,ioos:station:LUMCON:103:1,2004-02-15T20:00:00Z,30.1889,-90.1683,9.6,11111222 
LUMCON,ioos:station:LUMCON:103:1,2004-02-15T21:00:00Z,30.1889,-90.1683,9.8,11111222 
LUMCON,ioos:station:LUMCON:103:1,2004-02-15T22:00:00Z,30.1889,-90.1683,9.1,11111222 
LUMCON,ioos:station:LUMCON:103:1,2004-02-15T23:00:00Z,30.1889,-90.1683,8.7,11111222 
LUMCON,ioos:station:LUMCON:103:1,2004-02-16T00:00:00Z,30.1889,-90.1683,8.6,11111222 
LUMCON,ioos:station:LUMCON:103:1,2004-02-16T01:00:00Z,30.1889,-90.1683,8.0,11111222 
LUMCON,ioos:station:LUMCON:103:1,2004-02-16T02:00:00Z,30.1889,-90.1683,7.7,11111222 
LUMCON,ioos:station:LUMCON:103:1,2004-02-16T03:00:00Z,30.1889,-90.1683,7.4,11111222 
LUMCON,ioos:station:LUMCON:103:1,2004-02-16T05:00:00Z,30.1889,-90.1683,6.5,11111222 
LUMCON,ioos:station:LUMCON:103:1,2004-02-16T06:00:00Z,30.1889,-90.1683,5.9,11111222 
LUMCON,ioos:station:LUMCON:103:1,2004-02-16T07:00:00Z,30.1889,-90.1683,5.4,11111222 
LUMCON,ioos:station:LUMCON:103:1,2004-02-16T08:00:00Z,30.1889,-90.1683,4.9,11111222 
LUMCON,ioos:station:LUMCON:103:1,2004-02-16T09:00:00Z,30.1889,-90.1683,4.4,11111222 
LUMCON,ioos:station:LUMCON:103:1,2004-02-16T10:00:00Z,30.1889,-90.1683,4.1,11111222 
LUMCON,ioos:station:LUMCON:103:1,2004-02-16T11:00:00Z,30.1889,-90.1683,3.6,11111222 
LUMCON,ioos:station:LUMCON:103:1,2004-02-16T12:00:00Z,30.1889,-90.1683,3.3,11111222 
LUMCON,ioos:station:LUMCON:103:1,2004-02-16T13:00:00Z,30.1889,-90.1683,2.8,11111222 
LUMCON,ioos:station:LUMCON:103:1,2004-02-16T14:00:00Z,30.1889,-90.1683,3.8,11111222 
LUMCON,ioos:station:LUMCON:103:1,2004-02-17T18:00:00Z,30.1889,-90.1683,8.6,11111222 
LUMCON,ioos:station:LUMCON:103:1,2004-02-17T19:00:00Z,30.1889,-90.1683,9.1,11111222 
LUMCON,ioos:station:LUMCON:103:1,2004-02-17T21:00:00Z,30.1889,-90.1683,11.2,11111222 
LUMCON,ioos:station:LUMCON:103:1,2004-02-17T23:00:00Z,30.1889,-90.1683,11.9,11111222 
LUMCON,ioos:station:LUMCON:103:1,2004-02-18T00:00:00Z,30.1889,-90.1683,11.4,11111222 
LUMCON,ioos:station:LUMCON:103:1,2004-02-18T01:00:00Z,30.1889,-90.1683,10.3,11111222 
LUMCON,ioos:station:LUMCON:103:1,2004-02-18T02:00:00Z,30.1889,-90.1683,9.5,11111222 
LUMCON,ioos:station:LUMCON:103:1,2004-02-18T03:00:00Z,30.1889,-90.1683,8.5,11111222 
LUMCON,ioos:station:LUMCON:103:1,2004-02-18T04:00:00Z,30.1889,-90.1683,8.2,11111222 
LUMCON,ioos:station:LUMCON:103:1,2004-02-18T05:00:00Z,30.1889,-90.1683,7.6,11111222 
LUMCON,ioos:station:LUMCON:103:1,2004-02-18T06:00:00Z,30.1889,-90.1683,6.9,11111222 
LUMCON,ioos:station:LUMCON:103:1,2004-02-18T07:00:00Z,30.1889,-90.1683,6.7,11111222 
LUMCON,ioos:station:LUMCON:103:1,2004-02-18T08:00:00Z,30.1889,-90.1683,6.0,11111222 
LUMCON,ioos:station:LUMCON:103:1,2004-02-18T09:00:00Z,30.1889,-90.1683,4.8,11111222 
LUMCON,ioos:station:LUMCON:103:1,2004-02-18T10:00:00Z,30.1889,-90.1683,4.2,11111222 
LUMCON,ioos:station:LUMCON:103:1,2004-02-18T11:00:00Z,30.1889,-90.1683,4.3,11111222 